Location: *
(43.9905°S, 176.4941°W)
Time: 02:44:21
(UTC+00:00)

COSMOS 2487 - Pass Details

Date: 08 December 2019
Orbit: 442 x 448 km, 74.7° (Epoch: 20 January)

Event Time Altitude Azimuth Distance (km) Brightness Sun altitude
Rises 11:41:24 0° 212° (SSW) 2,488 7.1 -23.3°
Reaches altitude 10° 11:43:44 10° 224° (SW) 1,604 5.7 -23.3°
Enters shadow 11:45:37 22° 252° (WSW) 1,062 4.4 -23.3°
